Temp
83 86 87 88 87 88 88 86 87 87 86 86 86 85 85 86 86 89 90 74 70 71 73 75 76 76 76 75 73 72 72 72 72 72 71 70 70 70 69 69 69 69 69
78 84 84 84 84 84 86 86 86 85 86 86 85 85 85 86 87 87 90 90 69 69 70 72 74 75 76 76 74 72 72 72 72 72 71 70 70 69 69 69 69 69 69
76 78 81 80 80 82 80 82 83 85 85 86 85 86 86 86 88 88 89 89 89 69 69 70 71 72 73 74 74 73 73 72 72 72 71 71 70 69 69 68 68 68 69
69 71 73 74 76 78 79 79 79 80 81 80 79 84 86 86 86 86 88 88 90 90 80 68 69 70 70 72 73 74 74 73 72 72 71 71 70 70 69 69 68 68 68
71 73 73 73 74 75 74 74 75 74 74 73 76 81 82 84 86 88 87 87 86 87 88 78 69 68 69 70 71 73 74 73 73 73 72 71 70 70 69 69 68 68 68
69 71 71 69 72 72 72 71 70 73 74 73 75 79 81 83 84 85 85 83 83 79 79 77 78 81 67 68 70 72 74 75 74 74 73 72 72 70 70 69 69 69 68
67 68 70 69 70 68 67 67 69 70 73 71 74 74 78 83 82 79 81 82 80 79 78 79 76 77 79 70 70 71 72 73 74 74 73 72 71 70 70 70 70 69 69
65 66 66 66 66 68 64 64 64 66 70 69 64 70 70 75 79 74 78 78 73 76 75 75 74 75 76 78 74 68 69 64 63 64 65 66 66 68 69 70 69 69 69
64 64 64 64 64 65 64 63 62 62 64 67 65 62 61 63 61 76 72 73 69 69 70 71 71 71 70 72 72 72 59 58 60 62 62 64 65 66 66 67 68 69 69
63 63 62 62 62 63 61 62 63 62 62 61 65 65 62 58 57 57 68 68 68 66 66 68 67 69 71 73 68 64 57 55 56 59 60 62 63 64 64 65 65 67 68
62 62 61 61 61 62 60 60 60 60 62 60 61 60 60 62 63 57 54 59 62 64 67 63 66 67 69 68 69 66 56 54 55 56 58 60 61 61 62 63 64 65 65
63 60 61 60 60 60 59 60 59 58 58 59 59 60 59 57 56 52 49 52 52 58 59 63 63 66 66 68 64 58 56 53 54 54 56 58 58 59 60 61 62 63 64
60 58 59 58 59 58 58 58 58 58 57 57 56 58 59 58 59 56 51 50 47 53 58 60 63 64 66 63 63 57 56 53 52 53 54 53 55 56 58 59 61 61 61
59 58 58 58 57 58 58 58 59 58 57 56 55 55 56 58 57 53 47 43 42 49 53 53 61 63 62 62 59 55 61 53 52 50 50 51 53 55 55 56 56 56 58
59 57 57 57 57 57 56 57 57 55 56 55 54 52 52 53 51 50 48 46 41 37 42 52 53 59 59 59 58 59 59 55 51 49 49 51 52 52 52 52 53 54 54
57 57 56 57 57 56 56 56 56 54 54 53 53 50 49 50 49 48 47 48 46 42 37 50 52 55 56 58 58 58 59 54 53 51 49 49 50 50 50 50 51 51 52
56 56 56 56 55 54 54 54 54 52 51 51 51 49 47 47 47 47 48 47 46 45 40 46 51 53 53 54 55 57 58 58 60 53 50 49 48 48 48 48 48 49 49
55 55 55 55 54 53 53 52 51 52 51 50 50 49 48 48 45 46 46 45 45 45 42 39 47 50 50 50 51 51 54 56 56 54 49 48 48 47 47 47 46 46 47
54 55 54 53 52 52 52 52 52 51 51 51 50 49 49 46 45 45 45 45 45 45 45 42 43 48 48 49 47 49 49 50 54 50 49 48 48 48 47 47 47 46 46
54 54 54 53 52 51 50 50 51 51 51 51 50 50 50 48 45 43 44 43 43 42 42 41 42 43 45 46 45 41 41 45 44 48 48 47 47 48 47 47 47 46 46
54 54 52 52 52 50 46 44 48 51 50 50 50 51 50 45 41 41 41 40 41 40 40 39 38 40 39 39 38 40 37 38 39 43 47 49 48 50 51 49 49 47 46
52 52 51 51 50 49 38 38 40 50 51 50 49 50 50 47 44 39 38 38 38 38 37 37 38 36 36 38 40 36 35 34 32 44 41 38 42 41 45 47 46 44 43
52 50 50 50 49 47 37 37 37 51 50 49 49 49 49 50 45 41 39 40 41 39 38 38 36 36 35 40 38 35 35 34 34 38 38 36 42 42 45 46 44 43 42
51 50 49 50 49 45 36 36 36 50 50 50 48 48 45 45 43 37 40 43 44 44 45 41 38 39 41 42 41 38 36 36 38 41 42 34 41 40 43 43 43 43 43
51 50 50 48 48 46 36 36 39 49 49 49 49 48 44 43 36 36 40 41 41 42 40 38 38 39 39 40 40 39 35 34 33 35 40 36 36 35 38 40 43 45 43
50 51 49 47 36 46 34 36 37 48 46 46 47 47 38 37 35 35 38 40 37 36 35 37 39 41 42 43 40 42 38 33 33 32 39 34 35 35 33 43 43 42 43
MSLP
1018.83 1018.68 1018.50 1018.40 1018.43 1018.37 1018.24 1018.18 1018.01 1017.92 1017.87 1017.73 1017.67 1017.63 1017.48 1017.31 1017.11 1016.75 1016.32 1016.51 1016.84 1016.90 1016.88 1016.80 1016.64 1016.49 1016.36 1016.28 1016.21 1016.15 1016.09 1016.06 1016.06 1016.02 1016.00 1016.01 1015.98 1015.96 1015.94 1015.93 1015.96 1015.99 1015.98
1019.77 1018.97 1018.67 1018.74 1018.72 1018.69 1018.34 1018.12 1017.75 1017.77 1017.45 1017.29 1017.19 1017.12 1016.96 1016.75 1016.46 1016.31 1015.93 1015.57 1015.93 1016.06 1016.10 1016.07 1016.10 1015.98 1015.78 1015.56 1015.38 1015.31 1015.28 1015.25 1015.21 1015.15 1015.07 1015.02 1014.99 1014.98 1014.94 1014.88 1014.87 1014.89 1014.96
1020.14 1019.71 1019.40 1019.35 1019.34 1019.14 1019.01 1018.48 1018.17 1017.65 1017.36 1016.93 1016.84 1016.61 1016.53 1016.18 1015.85 1015.70 1015.54 1015.27 1014.94 1015.11 1015.23 1015.36 1015.36 1015.27 1015.22 1015.17 1015.08 1014.90 1014.68 1014.54 1014.43 1014.31 1014.24 1014.20 1014.09 1013.94 1013.79 1013.68 1013.69 1013.72 1013.72
1021.33 1021.05 1020.60 1020.46 1020.25 1019.64 1019.41 1019.09 1018.64 1018.26 1017.84 1017.53 1017.19 1016.57 1016.02 1015.66 1015.42 1015.36 1015.17 1014.90 1014.47 1014.30 1014.17 1014.41 1014.61 1014.77 1014.76 1014.61 1014.45 1014.32 1014.20 1014.04 1013.82 1013.64 1013.51 1013.35 1013.16 1013.01 1012.90 1012.82 1012.77 1012.63 1012.50
1021.46 1021.14 1021.09 1020.99 1020.65 1020.27 1020.28 1020.00 1019.48 1019.24 1018.65 1018.60 1017.89 1016.95 1016.24 1015.66 1015.00 1014.51 1014.34 1014.31 1014.23 1014.17 1013.89 1013.84 1014.12 1014.18 1014.04 1013.98 1013.91 1013.80 1013.67 1013.52 1013.35 1013.14 1012.88 1012.63 1012.42 1012.25 1012.11 1011.97 1011.85 1011.77 1011.70
1022.09 1021.74 1021.68 1021.77 1021.18 1020.98 1020.88 1020.77 1020.27 1019.70 1019.18 1018.94 1018.13 1016.85 1016.17 1015.67 1015.32 1014.80 1014.52 1014.90 1015.04 1015.09 1015.03 1014.89 1014.64 1013.78 1013.90 1013.90 1013.71 1013.40 1013.14 1013.02 1012.83 1012.57 1012.28 1012.01 1011.74 1011.44 1011.23 1011.07 1010.94 1010.84 1010.79
1022.83 1022.54 1022.07 1022.08 1021.77 1021.92 1021.96 1021.56 1020.89 1020.22 1019.43 1019.58 1018.04 1017.20 1016.07 1015.14 1015.11 1015.86 1015.60 1015.31 1015.42 1015.82 1015.70 1015.42 1015.26 1015.09 1014.23 1014.10 1013.59 1013.50 1013.38 1013.01 1012.51 1012.17 1011.82 1011.46 1011.13 1010.82 1010.54 1010.21 1009.92 1009.76 1009.71
1023.55 1023.25 1023.00 1022.77 1022.82 1022.35 1022.54 1022.35 1021.92 1021.11 1020.35 1020.36 1019.98 1017.90 1016.46 1015.72 1015.45 1016.58 1016.20 1016.13 1016.85 1016.52 1016.50 1016.20 1015.98 1015.51 1014.91 1013.99 1013.87 1013.71 1013.38 1013.65 1013.32 1013.05 1012.50 1011.86 1011.24 1010.63 1010.01 1009.53 1009.19 1008.85 1008.52
1023.97 1023.86 1023.73 1023.55 1023.30 1023.00 1022.91 1022.99 1022.76 1022.28 1021.35 1020.89 1021.08 1020.75 1019.26 1018.19 1018.23 1016.23 1016.92 1017.18 1017.61 1017.58 1017.30 1016.86 1016.36 1016.11 1015.64 1014.80 1013.83 1013.06 1013.45 1013.58 1013.52 1013.24 1012.67 1011.93 1011.11 1010.48 1009.84 1009.29 1008.70 1008.14 1007.76
1024.54 1024.42 1024.36 1024.25 1024.11 1023.84 1023.79 1023.57 1023.46 1023.00 1022.54 1021.89 1021.49 1021.82 1021.87 1021.86 1020.15 1018.30 1017.55 1017.75 1018.07 1018.06 1017.69 1017.01 1016.91 1016.09 1015.34 1014.49 1014.22 1013.87 1013.78 1013.89 1013.59 1013.14 1012.57 1011.83 1011.00 1010.29 1009.70 1009.02 1008.41 1007.76 1007.10
1025.07 1024.96 1024.94 1024.82 1024.67 1024.36 1024.42 1024.28 1023.94 1023.62 1023.15 1022.96 1022.56 1022.35 1022.11 1021.64 1020.94 1020.73 1018.86 1018.52 1018.89 1018.63 1017.89 1017.92 1016.98 1016.17 1015.42 1015.13 1014.50 1013.69 1013.81 1013.59 1013.28 1012.82 1012.23 1011.56 1010.67 1010.16 1009.44 1008.65 1007.90 1007.25 1006.68
1025.12 1025.39 1025.29 1025.25 1025.12 1024.86 1024.84 1024.71 1024.49 1024.42 1024.12 1023.84 1023.59 1023.19 1022.71 1022.37 1022.03 1022.08 1021.39 1020.53 1019.78 1019.05 1018.90 1017.81 1017.22 1016.38 1015.85 1014.90 1014.82 1014.06 1013.94 1013.70 1013.27 1012.62 1011.93 1011.08 1010.47 1009.76 1008.99 1008.18 1007.44 1006.72 1006.03
1025.54 1025.86 1025.64 1025.67 1025.52 1025.66 1025.59 1025.29 1025.12 1024.84 1024.69 1024.50 1024.32 1023.89 1023.62 1023.23 1022.99 1022.66 1022.43 1021.54 1020.66 1019.78 1018.48 1018.41 1017.50 1016.71 1015.76 1015.56 1014.76 1014.36 1013.81 1013.17 1012.62 1012.12 1011.48 1010.67 1009.74 1008.94 1008.13 1007.45 1006.73 1006.07 1005.51
1025.99 1026.26 1026.23 1026.15 1026.20 1026.15 1025.83 1025.50 1025.15 1025.15 1025.10 1024.96 1024.83 1024.74 1024.34 1023.95 1023.85 1023.88 1023.78 1023.01 1020.93 1019.72 1018.95 1018.20 1017.61 1016.53 1016.27 1015.55 1014.87 1013.91 1012.81 1012.45 1012.09 1011.57 1010.84 1009.90 1008.95 1008.13 1007.47 1006.84 1006.25 1005.77 1005.04
1026.45 1026.66 1026.66 1026.62 1026.62 1026.48 1026.33 1025.78 1025.60 1025.76 1025.43 1025.44 1025.32 1025.54 1025.39 1025.19 1025.14 1024.86 1024.57 1024.03 1023.13 1020.43 1018.76 1018.13 1017.46 1016.94 1016.36 1015.52 1014.43 1013.63 1012.50 1011.46 1011.28 1010.57 1009.75 1008.90 1008.23 1007.75 1007.03 1006.37 1005.69 1004.99 1004.32
1026.83 1026.89 1027.02 1027.01 1026.88 1026.81 1026.63 1026.28 1026.01 1026.18 1025.97 1026.08 1026.11 1026.04 1026.03 1025.88 1025.57 1025.23 1024.75 1024.15 1023.63 1022.63 1020.29 1019.21 1017.80 1017.04 1016.18 1015.14 1014.02 1013.21 1011.91 1011.02 1009.72 1009.16 1008.63 1008.12 1007.55 1006.71 1006.02 1005.35 1004.56 1003.89 1003.27
1027.19 1027.26 1027.36 1027.35 1027.28 1027.17 1027.05 1026.90 1026.66 1026.63 1026.53 1026.46 1026.44 1026.49 1026.46 1026.25 1025.87 1025.38 1024.90 1024.37 1023.67 1022.80 1021.08 1018.90 1018.44 1017.00 1015.73 1014.61 1013.65 1012.84 1011.74 1010.42 1008.90 1008.07 1007.61 1006.99 1006.42 1005.72 1004.89 1004.14 1003.64 1002.94 1002.25
1027.53 1027.64 1027.58 1027.62 1027.69 1027.67 1027.58 1027.29 1026.93 1026.81 1026.67 1026.53 1026.60 1026.59 1026.38 1026.32 1025.97 1025.53 1024.99 1024.37 1023.68 1022.92 1021.72 1019.40 1018.11 1016.63 1015.78 1014.92 1013.82 1012.65 1011.52 1010.36 1009.15 1007.88 1007.14 1006.33 1005.30 1004.44 1003.75 1003.04 1002.34 1001.62 1000.89
1027.72 1027.69 1027.74 1027.93 1028.10 1028.14 1027.86 1027.56 1027.14 1026.93 1026.89 1026.75 1026.68 1026.46 1026.25 1026.28 1025.81 1025.49 1025.01 1024.30 1023.64 1022.74 1021.75 1020.37 1018.01 1017.10 1015.74 1014.77 1013.51 1012.50 1011.21 1009.99 1008.86 1007.89 1006.71 1005.40 1004.27 1003.35 1002.44 1001.64 1000.93 1000.42 999.87
1027.61 1027.73 1027.89 1028.17 1028.37 1028.33 1028.37 1027.98 1027.27 1027.02 1026.92 1026.72 1026.68 1026.43 1026.06 1026.00 1026.04 1025.84 1025.16 1024.48 1023.56 1022.59 1021.50 1020.28 1018.74 1017.15 1015.91 1014.63 1014.04 1012.78 1010.01 1009.84 1008.52 1007.67 1005.95 1004.81 1003.40 1002.00 1000.97 1000.24 999.60 999.04 998.44
1027.74 1027.74 1028.04 1028.30 1028.35 1028.51 1029.19 1028.81 1027.79 1027.21 1026.98 1026.72 1026.52 1026.16 1025.90 1026.33 1026.40 1026.27 1025.85 1024.68 1023.71 1022.69 1021.47 1020.18 1018.71 1017.15 1015.93 1014.65 1013.68 1012.72 1011.59 1009.31 1008.39 1006.98 1004.85 1003.79 1002.89 1001.67 1000.46 999.41 998.60 997.70 997.08
1027.79 1028.02 1028.27 1028.42 1028.39 1028.75 1029.77 1029.44 1028.98 1027.40 1027.14 1026.86 1026.43 1026.10 1025.82 1025.61 1025.90 1025.77 1025.54 1024.83 1024.06 1022.83 1021.74 1020.54 1018.94 1017.58 1016.24 1015.29 1013.89 1012.98 1011.56 1009.74 1006.95 1006.48 1005.00 1003.57 1002.81 1001.04 1000.04 998.88 997.74 997.19 996.59
1027.94 1028.24 1028.39 1028.45 1028.59 1028.92 1029.85 1029.52 1029.03 1027.21 1027.20 1026.99 1026.66 1026.35 1025.90 1025.59 1025.36 1025.82 1024.91 1023.82 1022.88 1022.40 1021.67 1020.89 1019.49 1018.21 1016.55 1015.17 1013.91 1012.44 1011.33 1010.04 1008.23 1006.07 1005.19 1003.06 1001.95 1000.17 999.13 998.31 996.93 996.23 995.62
1027.90 1028.10 1028.36 1028.58 1028.52 1029.01 1029.79 1029.59 1028.89 1027.28 1027.08 1026.84 1026.70 1026.52 1026.38 1025.99 1025.77 1026.12 1024.81 1023.46 1022.56 1021.68 1020.79 1020.59 1019.59 1018.08 1016.76 1015.25 1014.00 1012.65 1011.01 1009.34 1007.89 1006.07 1005.07 1002.81 1001.39 999.90 998.60 997.76 996.12 995.39 994.54
1027.80 1028.02 1028.49 1028.52 1028.52 1028.89 1029.82 1029.73 1028.80 1027.26 1026.95 1026.72 1026.49 1026.43 1026.71 1026.33 1026.51 1026.11 1024.87 1023.50 1022.39 1021.27 1020.93 1020.03 1019.01 1017.57 1016.08 1014.76 1013.63 1012.10 1010.48 1008.85 1006.98 1005.56 1004.60 1003.35 1001.69 1000.19 998.55 996.91 995.92 994.89 994.34
1027.63 1028.10 1028.27 1028.54 1029.63 1028.87 1030.21 1029.92 1029.50 1027.64 1027.36 1026.91 1026.47 1026.20 1026.61 1026.93 1026.68 1026.23 1025.26 1023.75 1022.54 1021.54 1020.58 1019.25 1018.11 1016.68 1015.51 1014.29 1013.22 1012.11 1010.54 1008.92 1007.39 1005.46 1004.58 1003.71 1002.06 1001.24 998.69 996.65 996.09 995.12 994.53
Wind_Speed
3 3 2 3 3 3 4 5 5 5 7 8 8 9 10 10 11 8 7 5 10 12 16 18 18 16 16 16 18 19 20 20 21 21 21 21 21 22 22 22 23 23 23
4 4 4 5 5 6 5 6 6 7 7 8 9 10 10 10 11 11 10 10 11 13 15 17 18 19 18 18 18 19 21 21 21 22 22 22 22 23 23 23 23 24 24
6 5 4 4 5 5 7 6 7 7 8 8 10 10 10 13 12 12 11 10 11 13 15 14 15 17 17 18 18 17 19 20 21 22 23 23 23 24 24 25 25 25 25
9 7 6 6 7 6 6 7 6 7 7 7 9 10 10 11 13 13 13 12 11 11 8 14 13 13 14 16 18 19 20 20 20 22 22 23 23 24 25 25 25 26 26
9 6 6 6 6 5 6 7 6 6 7 7 9 10 10 11 12 11 13 13 12 10 9 11 7 10 13 14 16 18 19 19 20 21 22 23 24 24 24 25 25 25 26
10 6 7 8 7 7 7 8 8 7 6 9 11 10 9 10 10 9 9 9 11 14 13 14 14 12 10 9 12 15 18 19 19 21 22 23 23 24 25 24 25 26 26
10 9 7 8 7 8 9 10 8 8 7 10 8 9 9 8 6 9 8 8 9 13 11 12 8 10 11 19 17 18 25 24 22 23 23 23 23 22 23 25 26 26 26
10 9 8 8 9 6 9 10 10 7 6 9 8 8 6 8 5 12 5 8 14 12 14 15 15 16 15 13 14 21 18 23 24 27 27 25 24 26 26 24 25 26 27
10 10 10 8 7 7 7 9 10 10 7 6 9 7 6 5 13 4 9 9 13 12 13 15 15 17 17 14 14 14 17 20 26 27 29 29 25 24 24 25 26 26 26
10 9 9 9 8 7 8 8 8 8 8 7 5 6 4 5 6 9 6 13 13 14 15 10 15 14 16 13 18 18 14 18 25 30 31 28 29 27 27 26 25 26 27
9 9 8 8 7 7 7 9 9 9 6 7 6 6 6 6 5 9 13 12 13 13 11 15 13 14 15 15 13 15 19 26 27 29 28 31 27 27 29 28 27 26 26
6 8 9 8 9 8 9 8 8 10 9 8 7 7 7 8 9 6 11 14 16 12 16 12 14 13 14 12 21 22 28 22 25 26 32 30 32 33 30 29 29 28 28
5 8 8 9 8 8 7 7 8 8 8 7 9 7 7 7 7 8 10 13 15 15 10 14 13 13 12 16 17 22 29 25 27 25 27 33 32 31 30 30 28 27 26
6 7 7 7 8 8 8 7 6 7 8 7 9 9 7 8 8 8 9 12 15 11 13 20 12 10 15 15 21 24 20 23 25 28 33 32 30 29 26 25 25 26 26
6 7 7 7 7 9 9 8 7 9 8 8 9 10 9 8 9 9 9 10 10 15 16 16 16 17 16 17 19 22 23 27 27 28 26 28 21 23 24 27 30 28 27
7 7 7 7 8 9 9 9 7 8 9 8 7 9 9 8 9 8 9 9 10 12 15 16 16 20 18 16 19 21 23 27 25 23 19 20 26 27 29 30 26 26 28
7 7 7 7 8 8 9 8 8 9 9 8 9 10 10 10 8 9 9 10 11 12 15 16 16 19 22 22 20 20 19 20 18 24 25 23 22 26 29 26 27 30 29
7 7 7 7 8 8 8 8 8 8 9 9 9 8 9 8 11 10 10 13 12 14 13 22 19 17 20 22 22 22 17 18 19 25 27 32 30 26 24 26 28 28 23
7 7 7 7 7 7 8 8 8 8 8 8 9 9 10 10 11 11 12 12 13 13 15 14 18 15 16 16 18 19 18 18 17 27 29 30 30 29 28 25 26 21 27
7 7 7 6 6 7 9 9 8 7 8 8 8 9 9 11 13 14 13 15 14 14 14 13 14 16 16 18 14 15 20 13 17 18 22 23 26 26 25 24 26 25 27
7 7 6 6 6 7 8 12 9 7 8 9 8 9 10 8 12 12 12 16 17 14 13 13 14 15 14 16 17 14 16 19 15 17 15 12 16 17 18 21 22 24 17
7 6 6 5 5 7 10 13 11 7 7 8 9 10 11 9 14 15 19 20 17 15 17 14 14 16 19 17 15 15 16 16 20 10 16 17 14 15 14 13 22 25 27
7 6 5 5 6 8 11 14 15 6 7 8 9 10 11 10 12 17 19 19 15 13 14 13 17 17 20 19 19 18 18 17 17 17 16 16 13 15 11 14 26 25 26
7 6 5 4 4 8 12 14 19 6 6 7 8 10 11 13 15 19 19 17 17 17 16 15 16 18 18 20 19 17 19 17 14 14 14 14 12 15 13 12 26 22 23
6 6 5 5 5 7 12 15 16 7 8 9 8 9 11 14 21 23 18 18 18 16 18 23 24 25 23 23 20 14 13 14 16 16 13 9 11 15 12 13 10 15 17
6 5 6 6 3 6 11 12 14 6 9 8 9 10 7 15 21 21 17 17 18 18 18 19 17 19 20 19 24 17 14 14 14 14 10 11 12 8 8 7 12 10 9
Wind_Direction
1 319 356 304 316 315 287 275 274 281 285 271 269 270 273 274 274 274 281 214 219 237 254 265 265 259 255 245 237 238 239 240 240 240 239 239 239 239 238 237 237 238 237
352 325 4 0 351 330 333 310 312 303 291 295 279 272 274 277 276 280 277 278 207 227 238 250 261 266 261 253 241 236 238 240 241 242 240 238 237 237 238 238 236 235 236
15 350 22 4 359 344 316 318 311 296 284 275 277 276 279 268 267 269 274 280 286 224 228 237 246 253 259 266 267 259 249 245 244 242 242 242 241 239 238 237 236 235 234
35 29 28 11 359 354 355 341 339 323 305 311 309 300 295 283 275 276 273 275 277 289 254 223 240 250 258 263 267 271 270 265 257 254 252 248 245 244 244 243 242 239 235
43 31 31 28 7 17 10 1 345 348 348 318 309 299 290 285 287 290 285 289 290 286 302 306 261 253 257 261 266 273 277 277 276 271 263 258 255 254 252 252 250 247 244
41 37 50 29 19 22 21 3 354 352 345 343 315 300 305 302 294 291 329 342 325 359 351 355 345 332 336 285 279 280 286 290 289 286 282 275 267 260 256 256 258 255 252
45 34 43 33 23 32 21 11 357 357 358 359 319 331 296 271 337 3 338 315 9 341 338 338 320 323 323 320 314 346 329 318 308 308 306 298 287 274 266 260 258 256 255
44 49 37 40 26 31 29 22 14 355 8 24 352 298 333 307 83 329 324 329 10 329 344 330 334 327 319 329 320 307 306 7 2 348 341 335 328 317 298 278 269 262 257
51 45 43 39 35 30 31 23 15 19 356 21 40 3 336 347 334 45 328 14 329 348 331 331 326 330 321 306 307 329 25 358 350 340 335 329 325 320 316 310 299 281 269
51 46 42 37 35 35 29 26 26 14 6 17 3 17 27 325 332 321 336 322 356 331 333 333 325 316 322 321 332 314 12 350 339 330 323 319 319 320 320 317 310 303 293
53 52 44 43 40 39 38 31 29 23 26 11 3 359 350 319 327 314 304 333 324 330 330 324 309 318 330 324 317 310 348 340 331 319 320 322 316 319 317 315 313 307 301
61 46 50 48 42 38 33 33 28 29 22 18 359 354 353 348 337 328 308 315 315 323 321 302 328 327 321 318 320 335 328 318 313 320 316 314 315 312 308 308 309 309 308
62 53 49 46 45 41 38 28 28 27 21 13 9 355 351 342 334 326 322 316 317 316 298 322 328 311 313 326 317 322 310 312 311 317 316 313 307 305 303 304 304 303 307
66 58 60 57 53 42 30 25 36 22 15 12 10 7 342 349 346 342 323 318 314 313 310 318 317 324 315 313 307 311 307 309 313 319 306 299 296 301 308 311 317 313 305
91 71 64 63 53 41 31 24 31 19 13 14 13 9 356 350 342 332 327 323 315 313 314 317 326 319 316 311 311 309 310 307 312 294 290 297 306 315 309 308 303 300 302
84 78 71 64 53 41 32 24 23 25 20 23 16 4 354 348 336 329 323 323 316 308 299 315 316 317 314 307 307 309 308 308 302 296 295 297 306 308 303 299 293 294 299
85 76 74 68 53 45 36 31 28 30 23 19 14 4 351 342 341 337 326 323 317 312 302 304 308 312 311 315 317 315 310 310 308 308 309 298 297 288 289 292 293 291 289
95 88 87 75 55 46 37 30 29 21 17 15 13 358 356 353 342 339 334 326 321 316 309 307 311 314 314 318 315 311 312 308 309 304 315 305 299 292 281 287 288 285 280
111 98 87 76 57 40 29 23 25 19 12 10 4 357 359 349 349 344 337 334 326 320 314 307 307 312 310 314 318 314 309 309 305 307 303 301 299 296 287 282 284 282 287
112 101 87 88 65 49 29 14 12 14 8 10 359 351 356 354 355 344 337 330 326 322 316 309 306 309 314 318 313 314 310 311 310 308 297 291 290 290 279 286 289 287 283
110 100 101 93 78 54 29 8 355 7 2 0 354 355 2 344 5 346 337 331 327 323 323 315 310 310 316 318 319 319 306 310 313 299 301 320 309 300 299 301 297 290 285
112 107 109 103 81 67 9 9 351 348 355 355 349 353 350 346 347 355 329 319 303 319 318 313 314 315 315 314 315 314 309 313 316 303 314 303 302 297 293 293 295 295 289
131 118 116 110 91 59 18 5 342 339 347 353 353 348 348 353 349 345 333 314 318 311 290 328 315 313 310 317 315 309 309 305 303 306 304 301 304 295 299 297 296 294 288
146 133 108 109 89 71 20 3 331 355 352 360 358 356 352 350 10 342 331 332 327 326 333 327 315 309 308 310 314 311 306 301 296 303 314 298 314 308 309 299 299 297 292
144 131 121 101 76 67 26 7 339 357 358 360 358 3 356 352 355 345 334 334 329 328 331 317 313 307 308 315 322 318 318 317 320 322 324 317 316 306 302 293 286 314 311
136 145 120 97 75 73 50 10 357 354 355 351 358 359 30 10 345 344 339 337 336 338 326 326 324 326 328 328 327 327 322 321 318 321 329 316 318 330 312 298 327 316 325